This is the latest recevied weather packets stored in our database for station/object AI9F. If no packets are shown the sender has not sent any weather packets the latest 10 day(s).
| Time | Temp. | Humidity | Pressure | Rain* | Wind** | Luminosity | Snow |
|---|---|---|---|---|---|---|---|
| 1777905772 | 18.89° C | 71% | 1008.4 hPa | 0 mm | - | 145 W/m² | - |
| 1777905469 | 18.89° C | 69% | 1008.3 hPa | 0 mm | - | 164 W/m² | - |
| 1777905166 | 18.33° C | 69% | 1008.4 hPa | 0 mm | - | 186 W/m² | - |
| 1777904863 | 18.33° C | 70% | 1008.5 hPa | 0 mm | - | 190 W/m² | - |
| 1777904561 | 17.78° C | 70% | 1008.7 hPa | 0 mm | - | 181 W/m² | - |
| 1777904258 | 17.78° C | 73% | 1008.5 hPa | 0 mm | - | 143 W/m² | - |
| 1777903955 | 17.78° C | 75% | 1008.5 hPa | 0 mm | - | 172 W/m² | - |
| 1777903651 | 17.22° C | 72% | 1008.4 hPa | 0 mm | - | 139 W/m² | - |
| 1777903347 | 17.22° C | 74% | 1008.6 hPa | 0 mm | - | 127 W/m² | - |
| 1777903044 | 17.22° C | 73% | 1008.7 hPa | 0 mm | - | 142 W/m² | - |
| 1777902740 | 17.22° C | 75% | 1008.9 hPa | 0 mm | - | 161 W/m² | - |
| 1777902438 | 17.22° C | 75% | 1008.8 hPa | 0 mm | - | 114 W/m² | - |
| 1777902134 | 17.22° C | 73% | 1009.1 hPa | 0 mm | - | 84 W/m² | - |
| 1777901833 | 17.22° C | 74% | 1009 hPa | 0 mm | - | 102 W/m² | - |
| 1777901530 | 17.78° C | 74% | 1008.9 hPa | 0 mm | - | 124 W/m² | - |
| 1777901227 | 17.22° C | 77% | 1008.9 hPa | 0 mm | - | 257 W/m² | - |
| 1777900924 | 16.67° C | 78% | 1009.1 hPa | 0 mm | - | 276 W/m² | - |
| 1777900622 | 16.11° C | 80% | 1009.1 hPa | 0 mm | - | 133 W/m² | - |
| 1777900318 | 16.11° C | 82% | 1009.1 hPa | 0 mm | - | 106 W/m² | - |
| 1777900015 | 15.56° C | 84% | 1009 hPa | 0 mm | - | 174 W/m² | - |
| 1777899711 | 15° C | 86% | 1009 hPa | 0 mm | - | 154 W/m² | - |
| 1777899409 | 15° C | 86% | 1009.3 hPa | 0 mm | - | 95 W/m² | - |
| 1777899107 | 15° C | 88% | 1009.1 hPa | 0 mm | - | 79 W/m² | - |
| 1777898804 | 14.44° C | 87% | 1009 hPa | 0 mm | - | 118 W/m² | - |
| 1777898502 | 14.44° C | 88% | 1009 hPa | 0 mm | - | 79 W/m² | - |
* Rain latest hour (hover to see other rain measurements)
** Current wind speed in m/s (hover to see current wind gust speed)